This demonstration page uses our WeatherBlox Daily Observations layout. Learn more.

Hourly Observations for February 7, 2017

Temp ( °F °C ) Dew Point ( °F °C ) Humidity (%) Winds ( mph kmh ) Pressure ( in mb ) Visibility ( mi km ) Precip ( " mm )
12:15 am 00:15 Clear 39 4.1 35 1.6 84 84 W 12 19 29.59 1002 10 16.0934 0 0
12:35 am 00:35 Clear 39 3.9 33 0.6 79 79 W 9 15 29.59 1002 10 16.0934 0 0
12:55 am 00:55 Clear 38 3.1 32 0 80 80 W 9 15 29.59 1002 10 16.0934 0 0
1:15 am 01:15 Clear 38 3.2 32 -0.1 79 79 W 10 17 29.59 1002 10 16.0934 0 0
1:35 am 01:35 Clear 40 4.2 31 -0.5 72 72 WNW 7 11 29.59 1002 10 16.0934 0 0
1:55 am 01:55 Clear 38 3.6 30 -1 72 72 W 10 17 29.59 1002 10 16.0934 0 0
2:15 am 02:15 Clear 39 3.8 31 -0.8 72 72 W 10 17 29.59 1002 10 16.0934 0 0
2:35 am 02:35 Clear 39 3.9 30 -1 71 71 W 12 19 29.59 1002 10 16.0934 0 0
2:55 am 02:55 Clear 39 4 30 -1.2 69 69 W 12 19 29.62 1003 10 16.0934 0 0
3:15 am 03:15 Clear 38 3.4 29 -1.5 71 71 WNW 7 11 29.62 1003 10 16.0934 0 0
3:35 am 03:35 Clear 35 1.9 28 -2.2 75 75 NW 6 9 29.62 1003 10 16.0934 0 0
3:55 am 03:55 Clear 33 0.4 28 -2.2 83 83 NNW 5 7 29.65 1004 10 16.0934 0 0
4:15 am 04:15 Clear 32 0 28 -2.5 83 83 N 6 9 29.65 1004 10 16.0934 0 0
4:35 am 04:35 Clear 32 -0.2 28 -2.4 85 85 NNW 6 9 29.68 1005 10 16.0934 0 0
4:55 am 04:55 Clear 31 -0.6 28 -2.5 87 87 NNW 6 9 29.68 1005 10 16.0934 0 0
5:15 am 05:15 Clear 30 -1.2 27 -2.7 90 90 NNW 6 9 29.71 1006 10 16.0934 0 0
5:35 am 05:35 Clear 29 -1.9 26 -3.1 92 92 NNW 6 9 29.74 1007 10 16.0934 0 0
5:55 am 05:55 Clear 28 -2.2 26 -3.5 91 91 NNW 3 6 29.74 1007 10 16.0934 0 0
6:15 am 06:15 Clear 28 -2.3 26 -3.2 94 94 N 6 9 29.74 1007 10 16.0934 0 0
6:35 am 06:35 Clear 27 -2.9 25 -3.8 94 94 N 6 9 29.74 1007 10 16.0934 0 0
6:55 am 06:55 Clear 26 -3.2 25 -4.1 94 94 NNE 6 9 29.74 1007 7 11.26538 0 0
7:15 am 07:15 Clear 26 -3.5 24 -4.4 94 94 NNE 5 7 29.77 1008 7 11.26538 0 0
7:35 am 07:35 Mostly Cloudy with Mist and Fog 26 -3.6 24 -4.4 94 94 N 9 15 29.83 1010 1.25 2.011675 0 0
7:55 am 07:55 Cloudy with Mist and Fog 27 -2.8 26 -3.5 95 95 N 12 19 29.8 1009 2.5 4.02335 0 0
8:15 am 08:15 Cloudy with Mist and Fog 27 -2.8 26 -3.5 95 95 NNE 15 24 29.83 1010 4 6.43736 0 0
8:35 am 08:35 Cloudy with Mist and Fog 26 -3.2 25 -3.9 95 95 N 15 24 29.85 1011 3 4.82802 0 0
8:55 am 08:55 Cloudy with Mist and Fog 26 -3.5 25 -4.1 96 96 N 14 22 29.88 1012 5 8.0467 0 0
9:15 am 09:15 Cloudy with Mist and Fog 26 -3.5 25 -4.1 96 96 N 13 20 29.88 1012 5 8.0467 0 0
9:35 am 09:35 Cloudy 25 -4 23 -4.9 94 94 N 18 30 29.91 1013 7 11.26538 0 0
9:55 am 09:55 Cloudy 25 -4 23 -5 93 93 N 20 31 29.91 1013 7 11.26538 0 0
10:15 am 10:15 Cloudy 24 -4.3 22 -5.5 91 91 N 17 28 29.91 1013 10 16.0934 0 0
10:35 am 10:35 Cloudy 24 -4.3 22 -5.6 91 91 N 18 30 29.91 1013 7 11.26538 0 0
10:55 am 10:55 Cloudy 25 -4.1 22 -5.6 89 89 N 20 31 29.91 1013 10 16.0934 0 0
11:15 am 11:15 Cloudy 25 -3.7 22 -5.5 87 87 N 20 31 29.91 1013 10 16.0934 0 0
11:35 am 11:35 Cloudy 26 -3.5 22 -5.5 86 86 N 20 31 29.91 1013 10 16.0934 0 0
11:55 am 11:55 Cloudy 26 -3.2 20 -6.4 79 79 N 15 24 29.91 1013 10 16.0934 0 0
12:15 pm 12:15 Mostly Cloudy 27 -3 20 -6.7 76 76 N 16 26 29.91 1013 10 16.0934 0 0
12:35 pm 12:35 Mostly Cloudy 28 -2.2 19 -7 70 70 N 17 28 29.88 1012 10 16.0934 0 0
12:55 pm 12:55 Partly Cloudy 28 -2 19 -7.4 67 67 NNE 16 26 29.88 1012 10 16.0934 0 0
1:15 pm 13:15 Sunny 29 -1.5 19 -7.5 64 64 N 16 26 29.88 1012 10 16.0934 0 0
1:35 pm 13:35 Sunny 29 -1.5 18 -7.9 62 62 N 17 28 29.88 1012 10 16.0934 0 0
1:55 pm 13:55 Sunny 29 -1.5 17 -8.1 61 61 N 16 26 29.88 1012 10 16.0934 0 0
2:15 pm 14:15 Sunny 30 -1.2 17 -8.2 59 59 N 17 28 29.88 1012 10 16.0934 0 0
2:35 pm 14:35 Sunny 29 -1.5 17 -8.1 61 61 N 15 24 29.88 1012 10 16.0934 0 0
2:55 pm 14:55 Sunny 29 -1.7 17 -8.4 61 61 N 14 22 29.88 1012 10 16.0934 0 0
3:15 pm 15:15 Sunny 28 -2 17 -8.5 61 61 N 15 24 29.88 1012 10 16.0934 0 0
3:35 pm 15:35 Sunny 28 -2 17 -8.5 61 61 NNE 15 24 29.88 1012 10 16.0934 0 0
3:55 pm 15:55 Sunny 28 -2 16 -8.8 60 60 N 15 24 29.88 1012 10 16.0934 0 0
4:15 pm 16:15 Sunny 28 -2.5 16 -8.8 62 62 N 17 28 29.91 1013 10 16.0934 0 0
4:35 pm 16:35 Sunny 27 -2.6 16 -9.1 61 61 N 14 22 29.91 1013 10 16.0934 0 0
4:55 pm 16:55 Sunny 27 -3 16 -9 64 64 NNE 13 20 29.91 1013 10 16.0934 0 0
5:15 pm 17:15 Sunny 26 -3.2 16 -9.1 64 64 NNE 17 28 29.91 1013 10 16.0934 0 0
5:35 pm 17:35 Sunny 26 -3.5 15 -9.3 65 65 NNE 15 24 29.91 1013 10 16.0934 0 0
5:55 pm 17:55 Sunny 25 -4 15 -9.7 65 65 NE 20 31 29.91 1013 10 16.0934 0 0
6:15 pm 18:15 Clear 25 -4.1 14 -9.8 65 65 NE 17 28 29.91 1013 10 16.0934 0 0
6:35 pm 18:35 Partly Cloudy 24 -4.4 14 -10.2 64 64 NE 15 24 29.91 1013 10 16.0934 0 0
6:55 pm 18:55 Partly Cloudy 24 -4.5 13 -10.6 63 63 NE 17 28 29.91 1013 10 16.0934 0 0
7:15 pm 19:15 Clear 24 -4.5 13 -10.3 64 64 NE 12 19 29.91 1013 10 16.0934 0 0
7:35 pm 19:35 Mostly Cloudy 24 -4.6 12 -11 61 61 NE 12 19 29.94 1014 10 16.0934 0 0
7:55 pm 19:55 Cloudy 24 -4.7 12 -10.9 62 62 NNE 15 24 29.94 1014 10 16.0934 0 0
8:15 pm 20:15 Mostly Cloudy 23 -5 12 -11.2 62 62 NNE 13 20 29.91 1013 10 16.0934 0 0
8:35 pm 20:35 Cloudy 23 -5 12 -11 63 63 NNE 13 20 29.94 1014 10 16.0934 0 0
8:55 pm 20:55 Mostly Cloudy 22 -5.3 12 -11.1 64 64 NE 9 15 29.91 1013 10 16.0934 0 0
9:15 pm 21:15 Mostly Cloudy 23 -5.1 12 -11 64 64 NE 9 15 30 1016 10 16.0934 0 0
9:35 pm 21:35 Cloudy 22 -5.3 12 -11 65 65 E 12 19 29.91 1013 10 16.0934 0 0
9:55 pm 21:55 Cloudy 22 -5.3 12 -11.1 64 64 NE 13 20 30 1016 10 16.0934 0 0
10:15 pm 22:15 Cloudy 22 -5.5 11 -11.6 63 63 NE 13 20 29.97 1015 10 16.0934 0 0
10:35 pm 22:35 Mostly Cloudy 22 -5.8 11 -11.6 64 64 N 9 15 30 1016 10 16.0934 0 0
10:55 pm 22:55 Cloudy 21 -6 11 -11.6 65 65 N 8 13 30 1016 10 16.0934 0 0
11:15 pm 23:15 Partly Cloudy 20 -6.5 11 -11.5 68 68 N 12 19 30.03 1017 10 16.0934 0 0
11:35 pm 23:35 Partly Cloudy 20 -6.6 11 -11.5 68 68 N 10 17 30 1016 10 16.0934 0 0
11:55 pm 23:55 Mostly Cloudy 20 -6.6 11 -11.5 68 68 NNE 15 24 30 1016 10 16.0934 0 0

Powered by AerisWeather